Current Conditions for Foresthill, CA. Overcast, Dry   
Visibility: 9 miles
Cloud ht: 100 ft
Space WX Alerts: EXTENDED WARNING:  Geomagnetic K-index of 4 expected ( Latest Alert ) - Issue Time: 2020 Mar 31 1755 UTC

  Summary / Temperature 

Current Temperature
44.5°F
6.9°C
(24/hr Ago)
45.2°F
(Apparent temp)
42.8°F
Cool
Wind Chill Graphs
44.5°F 
Wind Chill-Avg
45.7°F 7.6°C
 --- Virtual Temp: 46.2°F ---

 Temp Rate:

 24/hr Difference:

 Avg Running Temp:

 Todays High:

 Todays Low:

 Y-days High:

 Y-days Low:

 Todays WChill:

 Y-days WChill:

 Evapotranspiration:

-1.0°F/hr 

-0.7°F

45.7°F

50.1°F 12:00am

44.5°F 7:27am

60.0°F 2:12pm

44.9°F 5:34am

44.5°F 7:27am

38.0°F 6:47am

-0.004 in

115' Above Ground

 Temperature:

 6'AGL VRS 115'AGL:

 Avg Running Temp:

 Humidity:

 Todays High:

 Todays Low:

 Y-days High:

 Y-days Low:

45.0°F 

+0.5°F

45.7°F

91% 

50.0°F 12:00am

45.0°F 7:03am

59.0°F 3:32pm

46.0°F 12:00am

Temp & Humidity Graphs

  Wind 

Wind Speed

 Calm

Gusting to

 None

Calm

144°  

Calm

 Avg speed:

 Wind Run:

 Peak Gust:

Calm 

0.0 miles

  4.0 mph 5:29am

  Almanac  

Moon age: 7 days,13 hours,22 minutes,52%

Waxing Gibbous
52%
Illuminated
7 days in cycle

 Moonrise:

 Moonset:

 Sunrise:

 Sunset:

 Solar Noon:

12:13pm

2:36am

6:44am

7:25pm

1:07pm

2min 31s more daylight tomorrow 

  Solar Radiation 

(Current Solar)
  16 W/m2 (18%)
(Todays High)
 21 W/m2@7:26am
Feels like: 46.4°F in the sun

Rain

 Rain Today:

 Rain Rate (/hr):

 Rain last hour:

 Rain Yesterday:

 This Month:

 Season Total:

2 Days Since Last Rain Day

0.00 in

0.000 in

0.00 in

0.00 in

0.00 in

29.14 in

Updated Time

Updated: 4/1/20  7:37am

(Updated  sec ago)

Humidity & Barometer

 Humidity:

 Wetbulb:

 Dew Point:

 Barometer:

93% 

43.6°F 

42.6°F 

29.954 inHg 

 Baro Trend:  Steady 
Northern Calif
Preparedness
Fire 
Level 

    UV Index  

(Current UV)
0.0  None
(Todays High) @ 12:00am
0.0   None

National Weather Service Forecast

Today

Today: Mostly Sunny
Mostly Sunny
Tonight

Tonight: Mostly Clear
Mostly Clear
Thursday

Thursday: Sunny
Sunny
Thursday
Night
Thursday Night: Mostly Clear
Mostly Clear
Friday

Friday: Mostly Sunny
Mostly Sunny
Friday
Night
Friday Night: Chance Light Rain
Chance Light Rain
Hi 53 °F Lo 34 °F Hi 56 °F ↓ Lo 36 °F Hi 56 °F Lo 39 °F

Foresthill Probe 2 Stats  
Foresthill Probe 2: is located on Thomas Street
at 3000 feet. The main Foresthill Weather site
is located on Melody ln at the 2860 foot elevation

Calm
44.8°F
7.1°C
Temp Rate:
-0.6°F
Calm
Gusting to
None
(Humidity)
94%
Calm
171°  
Updated: 01/04/20 - 07:38:17
 Todays High: 48.7°F 00:00
 Todays Low: 44.8°F 07:21
 Rain Today: 0.00 in
 Season Total: 29.50 in

Foresthill Wx: Monthly,Yearly, Highs and Lows 

Foresthill  
This Weather Data is coming from the main Foresthill
Weather site located on Melody ln at the 2860 foot
elevation
Not Foresthill Probe 2
Weather Data
Month
  High
Month
  Low
Year
High
Year
Low
Temp 50.1°F
4/1/20
44.5°F
4/1/20
76.1°F
3/12/20
28.3°F
2/3/20
Humidity 93%
4/1/20
89%
4/1/20
100%
1/8/20
12%
2/17/20
Heat Index 55.6°F
4/1/20
50.5°F
4/1/20
74.8°F
3/12/20
28.2°F
2/4/20
Wind Chill 50.1°F
4/1/20
44.5°F
4/1/20
76.1°F
3/12/20
14.7°F
2/3/20
Wind Gust 4 mph
4/1/20
0 mph
4/1/20
46 mph
2/9/20
0 mph
1/1/20
Barometer 30.03 in
4/1/20
29.94 in
4/1/20
30.59 in
1/5/20
29.66 in
3/13/20
ET 0.00 in
4/1/20
0.00 in
4/1/20
0.16 in
3/12/20
0.00 in
1/1/20
Dew Point 47.0°F
4/1/20
42.4°F
4/1/20
49.2°F
1/25/20
-2.6°F
2/3/20
Visible Satellite Pacific Satellite US Radar Satellite Imagery Sacramento,CA.  (click to enlarge)
NWS Weather Forecast - Summary
Updated: Wednesday, April 1, 2020 - 3:30am PDT
NWS Weather Forecast: Today and Tonight (Updated: Wed, 01-Apr-2020 1:54am PDT)
Today

Today: Mostly Sunny
Mostly Sunny

Hi 53 °F
NWS forecast: Mostly sunny, with a high near 53. Southwest wind 5 to 9 mph.
Tonight

Tonight: Mostly Clear
Mostly Clear

Lo 34 °F
NWS forecast: Mostly clear, with a low around 34. North wind 1 to 7 mph.
YR.NO 10 Day Weather forecast
Last update: 04/01/2020 @ 01:52
Next update: 04/01/2020 @ 08:05
Provided by: 22
      Temperature Precipitation Pressure Wind  
Today
04/01/2020
06:00 12:00 39°F   29.95 inHg Light air from east 3 mph
  12:00 18:00 50°F   29.94 inHg Light breeze from southwest 7 mph
  18:00 00:00 48°F   29.91 inHg Light breeze from west 5 mph
    (Click to enlarge)
meteogram

    Forecast for next 9 days

      Temperature Precip Pressure Wind  
Thursday
04/02/2020
00:00 06:00 28°F   29.97 inHg Light breeze from east 5 mph
  06:00 12:00 25°F   30.00 inHg Light breeze from east-northeast 7 mph
  12:00 18:00 52°F   30.02 inHg Light breeze from west 5 mph
  18:00 00:00 50°F   30.01 inHg Light breeze from west 4 mph
      Temperature Precip Pressure Wind  
Friday
04/03/2020
00:00 06:00 27°F   30.05 inHg Light breeze from east 4 mph
  06:00 12:00 25°F   30.01 inHg Light breeze from east 4 mph
  11:00 17:00 52°F   30.02 inHg Light breeze from west-southwest 4 mph
  17:00 23:00 52°F   29.94 inHg Light breeze from west-southwest 5 mph
  23:00 05:00 32°F   29.97 inHg Light air from east 3 mph
      Temperature Precip Pressure Wind  
Saturday
04/04/2020
05:00 11:00 27°F   29.90 inHg Light breeze from east 4 mph
  11:00 17:00 46°F 0.27 in 29.89 inHg Light breeze from south-southwest 7 mph
  17:00 23:00 37°F 0.68 in 29.87 inHg Gentle breeze from south-southeast 8 mph
  23:00 05:00 37°F 0.24 in 29.81 inHg Gentle breeze from south 8 mph
      Temperature Precip Pressure Wind  
Sunday
04/05/2020
05:00 11:00 37°F 0.56 in 29.75 inHg Gentle breeze from south-southeast 11 mph
  11:00 17:00 37°F 0.48 in 29.78 inHg Gentle breeze from south-southwest 12 mph
  17:00 23:00 34°F 0.07 in 29.82 inHg Gentle breeze from south-southeast 8 mph
  23:00 05:00 32°F < 0.01 in 29.85 inHg Light breeze from southeast 4 mph
      Temperature Precip Pressure Wind  
Monday
04/06/2020
05:00 11:00 28°F   29.86 inHg Light breeze from east 4 mph
  11:00 17:00 41°F 0.06 in 29.89 inHg Light breeze from south-southwest 4 mph
  17:00 23:00 43°F 0.03 in 29.84 inHg Light air from north-northwest 2 mph
  23:00 05:00 34°F 0.13 in 29.93 inHg Light breeze from east-southeast 4 mph
      Temperature Precip Pressure Wind  
Tuesday
04/07/2020
05:00 11:00 34°F 0.15 in 30.02 inHg Light air from southeast 2 mph
  11:00 17:00 37°F 0.03 in 30.14 inHg Light breeze from south 4 mph
  17:00 23:00 48°F   30.06 inHg Light air from west 2 mph
  23:00 05:00 28°F < 0.01 in 30.05 inHg Light breeze from east-northeast 6 mph
      Temperature Precip Pressure Wind  
Wednesday
04/08/2020
05:00 11:00 36°F 0.07 in 30.08 inHg Light breeze from east-southeast 6 mph
  11:00 17:00 41°F 0.02 in 30.15 inHg Light air from south 2 mph
  17:00 23:00 46°F   30.06 inHg Light breeze from west-northwest 4 mph
  23:00 05:00 30°F   30.07 inHg Light breeze from east-northeast 4 mph
      Temperature Precip Pressure Wind  
Thursday
04/09/2020
05:00 11:00 27°F   30.05 inHg Light breeze from east 5 mph
  11:00 17:00 50°F 0.08 in 30.05 inHg Light breeze from west 6 mph
  17:00 23:00 43°F 0.15 in 30.05 inHg Light breeze from south 6 mph
  23:00 05:00 39°F 0.03 in 30.12 inHg Light breeze from east-southeast 4 mph
      Temperature Precip Pressure Wind  
Friday
04/10/2020
05:00 11:00 37°F 0.02 in 30.13 inHg Light air from southeast 3 mph

NOAA Local Storm Report
4 MILES WEST-NORTHWEST OF BEALE AFB   ( More )
DATE
01/05/2020
TIME
3:43 AM
COUNTY
YUBA
STATE
CA
GEOGRAPHIC
39.13N 121.44W
SOURCE
OTHER FEDERAL
DENSE FOG
beale airforce base reported a visibilities less than an quarter miles from roughly 3:43am to 7:23am. Beyond 7:23am visibility was not reported.
How Close Are We To this Month's Temperature Record ?
Updated Wednesday, Apr 1, 2020- 7:35:01 AM

Current Temperature: 44.5°F

April's High: Temperature Record 83.2°F - Set on Sun, Apr 22, 2012 - 2:12:00 PM
We are currently 38.7°F Less than this Month's record High

April's Low: Temperature Record 31.4°F - Set on Thu, Apr 5, 2012 - 6:23:00 AM
We are currently 13.1°F More than this Month's record Low

Weather History For Wednesday, April 1, 2020


On this Day - In Weather History ...
Data courtesy of weatherforyou.com
powered by Cumulus v1.9.3 (1059)
Ambient Weather VWS v14.00
Top Website Map Copyright © 2007 - 2020 Foresthillweather.com Never base important decisions on this or any weather information obtained from the Internet